Tracking 20475 objects as of 27-Feb-2020
HD Live streaming from Space Station
objects crossing your sky now

SKYNET 2B

Track SKYNET 2B now!
SKYNET 2B is classified as:


NORAD ID: 7547
Int'l Code: 1974-094A
Perigee: 35,800.4 km
Apogee: 35,835.3 km
Inclination: 9.1 °
Period: 1,437.3 minutes
Semi major axis: 42188 km
RCS: 3.166 m2 (large)
Launch date: November 23, 1974
Source: United Kingdom (UK)
Launch site: AIR FORCE EASTERN TEST RANGE (AFETR)
aabbcc
Your satellite tracking list
Your tracking list is empty




NASA's NSSDC Master Catalog

Two Line Element Set (TLE):
1  7547U 74094A   20056.66184088 -.00000363  00000-0  00000+0 0  9993
2  7547   9.1383 306.1638 0004135  62.3680 138.6507  1.00185962101648
Source of the keplerian elements: AFSPC